This is the latest recevied weather packets stored in our database for station/object KF0JHJ. If no packets are shown the sender has not sent any weather packets the latest 10 day(s).
| Time | Temp. | Humidity | Pressure | Rain* | Wind** | Luminosity | Snow |
|---|---|---|---|---|---|---|---|
| 1777421336 | 10° C | 55% | 1013.8 hPa | - | - | 29 W/m² | - |
| 1777421034 | 10.56° C | 54% | 1013.4 hPa | - | - | 32 W/m² | - |
| 1777420730 | 10.56° C | 54% | 1013.5 hPa | - | - | 32 W/m² | - |
| 1777420426 | 11.11° C | 57% | 1013.6 hPa | - | - | 35 W/m² | - |
| 1777420123 | 11.11° C | 55% | 1013.5 hPa | - | - | 39 W/m² | - |
| 1777419814 | 11.11° C | 55% | 1013.6 hPa | - | - | 45 W/m² | - |
| 1777419512 | 11.11° C | 54% | 1013.4 hPa | - | - | 55 W/m² | - |
| 1777419210 | 11.11° C | 55% | 1013.1 hPa | - | - | 66 W/m² | - |
| 1777418906 | 11.11° C | 55% | 1013.3 hPa | - | - | 56 W/m² | - |
| 1777418602 | 11.11° C | 53% | 1013.6 hPa | - | - | 53 W/m² | - |
| 1777418298 | 11.67° C | 54% | 1013.3 hPa | - | - | 55 W/m² | - |
| 1777417994 | 11.67° C | 52% | 1013.3 hPa | - | - | 72 W/m² | - |
| 1777417690 | 11.67° C | 53% | 1013.2 hPa | - | - | 83 W/m² | - |
| 1777417385 | 11.67° C | 54% | 1013.4 hPa | - | - | 76 W/m² | - |
| 1777417082 | 11.67° C | 52% | 1013.2 hPa | - | - | 67 W/m² | - |
| 1777416777 | 12.22° C | 53% | 1013.2 hPa | - | - | 155 W/m² | - |
| 1777416473 | 12.22° C | 51% | 1013.4 hPa | - | - | 289 W/m² | - |
| 1777416170 | 12.78° C | 51% | 1013.4 hPa | - | - | 210 W/m² | - |
| 1777415864 | 12.78° C | 51% | 1013.4 hPa | - | - | 203 W/m² | - |
| 1777415559 | 12.78° C | 50% | 1013.5 hPa | - | - | 234 W/m² | - |
| 1777415255 | 12.78° C | 51% | 1013.2 hPa | - | - | 307 W/m² | - |
| 1777414951 | 12.78° C | 51% | 1013.4 hPa | - | - | 372 W/m² | - |
| 1777414650 | 12.78° C | 52% | 1013.2 hPa | - | - | 341 W/m² | - |
| 1777414345 | 12.78° C | 51% | 1013.2 hPa | - | - | 363 W/m² | - |
| 1777414041 | 12.78° C | 52% | 1013.4 hPa | - | - | 357 W/m² | - |
* Rain since midnight (hover to see other rain measurements)
** Current wind speed in m/s (hover to see current wind gust speed)